Miscellaneous Local Product
Issued by NWS Hastings, NE

Home | Current Version | Previous Version | Graphics & Text | Print | Product List | Glossary On
Versions: 1 2 3 4 5 6 7 8 9 10 11 12 13 14 15 16 17 18 19 20 21 22 23 24 25 26 27 28 29 30 31 32 33 34 35 36 37 38 39 40 41 42 43 44 45 46 47 48 49 50
000
AXUS43 KGID 301902
MISGRI

GID CWA HOURLY WEATHER ROUNDUP
NATIONAL WEATHER SERVICE HASTINGS NE
200 PM CDT MON MAY 30 2016

NOTE: "FAIR" INDICATES FEW OR NO CLOUDS BELOW 12,000 FEET WITH NO
SIGNIFICANT WEATHER AND/OR OBSTRUCTIONS TO VISIBILITY.

...SOUTH CENTRAL NEBRASKA...

CITY           SKY/WX    TMP DP  RH WIND       PRES   REMARKS
GRAND ISLAND   SUNNY     80  59  48 S9        29.94F
HASTINGS       SUNNY     80  55  42 SW13      29.94F
KEARNEY        SUNNY     81  54  39 S15G22    29.94F
ORD            SUNNY     80  59  48 SE13      29.90F
YORK           SUNNY     81  59  47 S14       29.94F
AURORA         SUNNY     79  60  52 SW10G17   29.94F
LEXINGTON      SUNNY     78  55  44 S14       29.92F
HOLDREGE       SUNNY     80  51  36 S14G22    29.94F
HEBRON         SUNNY     81  53  38 SW9       29.95F

...NEBRASKA PANHANDLE...

CITY           SKY/WX    TMP DP  RH WIND       PRES   REMARKS
CHADRON        SUNNY     80  45  28 W14       29.87F
ALLIANCE       SUNNY     79  44  28 W14G22    29.90F
SCOTTSBLUFF    SUNNY     79  45  29 W10G22    29.93F
SIDNEY         SUNNY     78  54  43 S12       29.95F

...WESTERN AND NORTH CENTRAL NEBRASKA...

CITY           SKY/WX    TMP DP  RH WIND       PRES   REMARKS
VALENTINE      SUNNY     80  52  37 S16G29    29.86F
AINSWORTH      SUNNY     78  55  44 S16G24    29.89F
ONEILL         PTSUNNY   77  56  48 S13       29.92F
BROKEN BOW     SUNNY     78  54  43 S17       29.92F
IMPERIAL       SUNNY     78  56  46 S14       29.92F
NORTH PLATTE   SUNNY     79  56  45 S10       29.91F
MCCOOK         SUNNY     80  57  45 S13G21    29.91F

...EASTERN NEBRASKA...

CITY           SKY/WX    TMP DP  RH WIND       PRES   REMARKS
NORFOLK        MOSUNNY   82  56  40 S17G23    29.91F
SO SIOUX CITY  CLOUDY    84  57  39 S14       29.91F
TEKAMAH        CLOUDY    87  55  33 S14       29.92F
COLUMBUS       MOSUNNY   82  59  44 S16G22    29.93F
ALBION         MOSUNNY   79  58  48 S12       29.92F
OMAHA EPPLEY   PTSUNNY   84  63  49 SE9       29.93F
MILLARD        PTSUNNY   85  61  44 SE7       29.94F
LINCOLN          N/A     86  64  47 S13       29.93F
NEBRASKA CITY  MOSUNNY   84  59  43 S13       29.95F
BEATRICE       CLOUDY    83  63  49 SW13G18   29.95F
FALLS CITY     MOSUNNY   86  67  52 S12       29.95F

...NORTHERN KANSAS...

CITY           SKY/WX    TMP DP  RH WIND       PRES   REMARKS
GOODLAND       SUNNY     78  55  44 S14       29.94F
HILL CITY      SUNNY     83  54  36 S20G26    29.94F
NORTON         CLEAR     82  45  26 S16G24    29.93F
PHILLIPSBURG   SUNNY     81  55  41 S12G18    29.94F
SMITH CENTER   SUNNY     79  61  53 S13       29.95F
BELOIT         SUNNY     81  59  47 S8        29.94F
HAYS           SUNNY     81  55  41 S20G25    29.95F
RUSSELL        SUNNY     79  60  52 S15G24    29.95F
CONCORDIA      SUNNY     80  58  46 S10       29.96F
SALINA         SUNNY     83  61  47 S9        29.96F
TOPEKA           N/A     83  64  52 SE12      29.97F



USA.gov is the U.S. government's official web portal to all federal, state and local government web resources and services.